[[{"header":{"parameterUnit":"m.s-1","parameterCategory":1,"la1":30.2991,"la2":30.254,"lo1":-89.0895,"lo2":-89.0444,"dy":0.0017,"dx":0.0017,"nx":28,"ny":28,"refTime":"2025-03-25T09:00:00:Z","depth":0,"parameterNumber":2,"parameterNumberName":"U-component_of_WINDS"},"data":[0,0,0,0,0,0,0,0,0,0,0,0,0,0,0,0,0,0,0,0,0,0,0,0,0,0,0,0,0,0,0,0,0,0,0,0,0,0,0,0,0,0,0,0,0,0,0,0,0,0,0,0,0,0,0,0,0,0,0.9692,0.9693,0,0.9814,0.9815,0.9817,0.9847,0.9846,0.9846,0.9845,0.9971,0.9975,0.9979,0,0,0,0,0,0,0,0,0,0,0,0,0,0.9485,0.9488,0.9692,0.9693,0.9695,0.9814,0.9815,0.9817,0.9847,0.9846,0.9845,0.9845,0.997,0.9974,0.9979,0,0,0,0,0,0,0,0,0,0,0,0,0,0.9587,0.9489,0.9692,0.9724,0.9729,0.9813,0.9815,0.9818,0.9848,0.9846,0.9845,0.9844,0.9968,0.9974,0.998,1.0041,0,0,0.9999,1.0001,0,0,0,0,0,0,0,0,0.9581,0.9595,0.9718,0.9722,0.9727,0.9814,0.9789,0.9893,0.9848,0.9802,0.9845,0.9844,0.992,0.993,0.9955,1.0047,1.0053,0.9999,1.0003,1.0006,1.0007,0,0,0,0,0,0,0,0.9574,0.959,0.974,0.972,0.9725,0.9733,0.9746,0.9808,0.9866,0.9806,0.9809,0.9823,0.9922,0.9949,0.9958,1.0054,0.9999,1.0005,1.0008,1.0011,1.02,1.0202,0,0,0,0,0,0,0.9562,0.9584,0.9736,0.9744,0.965,0.9737,0.9752,0.9787,0.9866,0.9876,0.9824,0.9824,0.9939,0.9951,0.9963,1.0038,1.0006,1.0011,1.0015,1.0199,1.0201,1.0202,0,0,0,0,0,0,0.9557,0.9575,0.9731,0.9665,0.9685,0.9742,0.9781,0.979,0.9818,0.9879,0.9889,0.9841,0.9939,0.9954,1.0021,1.0043,1.0014,1.002,1.0197,1.0199,1.0201,1.019,0,0,0,0,0,0,0.9551,0.9573,0.9597,0.9665,0.9688,0.9788,0.9783,0.9794,0.9828,0.9829,0.9898,0.9908,0.9939,1.0012,1.0027,1.0051,1.0024,1.0196,1.0198,1.0201,1.0189,1.0192,1.0194,0,0,0,0,0,0.9543,0.959,0.9598,0.9617,0.972,0.9789,0.9802,0.9837,0.983,0.9854,0.9893,0.9906,1.0038,1.0018,1.0036,1.0062,1.0194,1.0197,1.02,1.0188,1.0191,1.0194,0,0,0,0,0,0,0.9525,0.96,0.961,0.968,0.9727,0.9794,0.9826,0.984,0.9891,0.989,0.9932,0.9947,1.001,1.0043,1.0019,1.0124,1.0116,1.0123,1.0101,1.0104,1.0107,1.0097,1.0029,0,0,0,0,0,0.9528,0.9578,0.9641,0.9697,0.972,0.9769,0.98,0.9822,0.9874,0.9894,0.9938,0.9988,1.004,1.0074,1.0126,1.0194,1.0208,1.022,1.0223,1.0225,1.023,1.0266,1.0272,1.0212,1.0212,1.0212,0,0,0.9537,0.9584,0.9613,0.9694,0.9734,0.9784,0.9786,0.9839,0.9876,0.9903,0.9968,1.0001,1.0059,1.0126,1.0157,1.0155,1.0249,1.0229,1.023,1.0234,1.027,1.0275,1.028,1.0214,1.0214,1.0213,0,0,0.9578,0.9619,0.9669,0.9709,0.9768,0.98,0.9812,0.9876,0.9899,0.9964,0.9985,1.0029,1.012,1.0159,1.0191,1.0245,1.0258,1.0261,1.0274,1.0309,1.0314,1.0318,1.0336,1.0342,1.0266,1.0266,1.0266,0,0.9582,0.9658,0.9693,0.9745,0.9779,0.9804,0.9855,0.9891,0.9965,0.9988,0.9984,1.0096,1.0137,1.0212,1.0225,1.025,1.0264,1.0253,1.031,1.0315,1.032,1.0337,1.0344,1.0266,1.0266,1.0266,1.0266,0,0.9658,0.9711,0.9744,0.9813,0.9851,0.9902,0.9944,0.9978,0.9997,1.0029,1.0094,1.0144,1.0205,1.0225,1.0244,1.0302,1.0299,1.0302,1.0295,1.0324,1.0341,1.0348,1.0266,1.0266,1.0266,1.0266,0,0,0.9692,0.9779,0.979,0.9821,0.9888,0.9929,0.998,1.0039,1.0067,1.0117,1.016,1.0234,1.0237,1.0273,1.0297,1.0328,1.0365,1.0327,1.0329,1.0331,1.043,1.0427,1.0434,1.0374,1.0375,1.0376,1.0425,0,0.9741,0.9833,0.9865,0.9941,0.9989,1.0012,1.0057,1.0102,1.0133,1.0177,1.0211,1.0263,1.0263,1.0285,1.0316,1.0353,1.0385,1.0351,1.0414,1.0416,1.0398,1.0443,1.044,1.0484,1.0432,1.0433,1.0434,0,0.981,0.9859,0.9939,0.9998,1.0019,1.0059,1.0115,1.0157,1.0209,1.0229,1.0268,1.0289,1.0342,1.0331,1.0405,1.038,1.0408,1.043,1.0432,1.0439,1.0426,1.045,1.0499,1.0505,1.0445,1.0444,1.0443,0,0.9825,0.9911,0.997,0.9996,1.0066,1.0093,1.0124,1.0174,1.0206,1.0255,1.0277,1.0331,1.0361,1.0402,1.0437,1.0426,1.0507,1.0499,1.0524,1.0523,1.054,1.0539,1.0593,1.0559,1.0559,1.0559,1.0559,0,0.9875,0.9923,0.9977,1.0013,1.0067,1.0103,1.0155,1.0187,1.0231,1.0273,1.0297,1.0336,1.038,1.0424,1.0452,1.0508,1.0521,1.0538,1.0545,1.0536,1.0534,1.0554,1.0552,1.056,1.056,1.056,1.0559,0,0.9901,0.994,1.0005,1.0065,1.0082,1.0118,1.017,1.0205,1.0236,1.0289,1.0304,1.0352,1.0405,1.0444,1.0513,1.0531,1.0591,1.0598,1.0573,1.0577,1.0599,1.0596,1.0668,1.0679,1.0638,1.0638,1.0639,0,0.9931,0.9968,1.0032,1.0061,1.0092,1.0139,1.0172,1.0209,1.0242,1.0302,1.033,1.0385,1.043,1.0514,1.0556,1.0608,1.0616,1.0638,1.0624,1.0613,1.0615,1.0612,1.0615,1.0639,1.064,1.064,1.064,0,0.9978,0.9995,1.0042,1.0095,1.0133,1.0177,1.0221,1.0244,1.0288,1.0324,1.0378,1.0413,1.0483,1.0536,1.0593,1.0624,1.0639,1.0644,1.0652,1.0643,1.0627,1.0635,1.0578,1.0642,1.0642,1.0642,1.0642,1.0642,1.0006,1.004,1.0089,1.014,1.0177,1.0217,1.0252,1.0287,1.0333,1.0392,1.041,1.0466,1.0515,1.0591,1.0623,1.0667,1.0666,1.0678,1.0681,1.0684,1.0682,1.062,1.0677,1.0677,1.0677,1.0677,1.0677,0,1.0054,1.0087,1.0133,1.0193,1.0232,1.0243,1.0291,1.0324,1.0372,1.0416,1.046,1.0521,1.0573,1.0617,1.067,1.0697,1.0705,1.0709,1.0708,1.0714,1.0681,1.0668,1.0702,1.0702,1.0702,1.0702,1.0702,1.0702,1.0083,1.014,1.0162,1.0236,1.0268,1.0323,1.0349,1.0386,1.0421,1.0488,1.0531,1.0559,1.0603,1.0659,1.0706,1.0718,1.0736,1.0739,1.0752,1.072,1.0717,1.0714,1.0702,1.0743,1.0743,1.0782,1.0782,1.0782]},{"header":{"parameterUnit":"m.s-1","parameterCategory":1,"la1":30.2991,"la2":30.254,"lo1":-89.0895,"lo2":-89.0444,"dy":0.0017,"dx":0.0017,"nx":28,"ny":28,"refTime":"2025-03-25T09:00:00:Z","depth":0,"parameterNumber":3,"parameterNumberName":"V-component_of_WINDS"},"data":[0,0,0,0,0,0,0,0,0,0,0,0,0,0,0,0,0,0,0,0,0,0,0,0,0,0,0,0,0,0,0,0,0,0,0,0,0,0,0,0,0,0,0,0,0,0,0,0,0,0,0,0,0,0,0,0,0,0,2.932,2.9319,0,2.927,2.9269,2.9268,2.9229,2.9229,2.9228,2.9228,2.9172,2.9171,2.917,0,0,0,0,0,0,0,0,0,0,0,0,0,2.9378,2.9377,2.932,2.9319,2.9319,2.927,2.9269,2.9268,2.9229,2.9229,2.9228,2.9228,2.9172,2.9171,2.917,0,0,0,0,0,0,0,0,0,0,0,0,0,2.9343,2.9377,2.932,2.9294,2.9291,2.927,2.9269,2.9268,2.9229,2.9229,2.9228,2.9228,2.9173,2.9171,2.9169,2.917,0,0,2.9164,2.9163,0,0,0,0,0,0,0,0,2.9345,2.9341,2.9298,2.9295,2.9292,2.9255,2.9269,2.9235,2.9229,2.9252,2.9228,2.9227,2.92,2.9196,2.9187,2.9167,2.9165,2.9164,2.9163,2.9162,2.9162,0,0,0,0,0,0,0,2.9347,2.9343,2.93,2.9297,2.9294,2.9283,2.9277,2.9262,2.923,2.925,2.9248,2.9242,2.9198,2.9189,2.9186,2.9164,2.9164,2.9162,2.9161,2.9161,2.914,2.914,0,0,0,0,0,0,2.9355,2.9345,2.9302,2.9298,2.9318,2.9282,2.9276,2.9268,2.923,2.9224,2.9243,2.9241,2.9192,2.9188,2.9184,2.9181,2.9162,2.9161,2.916,2.9139,2.914,2.9141,0,0,0,0,0,0,2.9356,2.9351,2.9304,2.9321,2.9314,2.9282,2.9273,2.9267,2.9258,2.9224,2.9218,2.924,2.9192,2.9186,2.9174,2.9179,2.916,2.9158,2.9139,2.914,2.914,2.9176,0,0,0,0,0,0,2.9358,2.9352,2.9353,2.9321,2.9313,2.9296,2.9273,2.9266,2.9256,2.9252,2.922,2.9214,2.9191,2.9176,2.9172,2.9176,2.9157,2.9138,2.9139,2.914,2.9175,2.9178,2.9181,0,0,0,0,0,2.936,2.9364,2.9353,2.9348,2.9314,2.9296,2.9291,2.9266,2.9256,2.9256,2.9234,2.9215,2.9179,2.9175,2.917,2.9174,2.9138,2.9139,2.914,2.9173,2.9178,2.9181,0,0,0,0,0,0,2.9395,2.9359,2.9347,2.9341,2.9322,2.929,2.9289,2.9272,2.9255,2.9252,2.922,2.9213,2.9204,2.9187,2.9184,2.9171,2.9156,2.9156,2.9183,2.9187,2.919,2.9194,2.9155,0,0,0,0,0,2.9403,2.9393,2.9361,2.9359,2.9351,2.9322,2.9313,2.9295,2.9274,2.9265,2.9242,2.9221,2.9205,2.9195,2.9178,2.9172,2.9164,2.9171,2.9175,2.9178,2.9178,2.9173,2.9176,2.9144,2.9144,2.9144,0,0,2.9418,2.9397,2.9392,2.9366,2.9349,2.9338,2.9315,2.9304,2.9296,2.9263,2.925,2.9233,2.9207,2.9197,2.9192,2.9183,2.9185,2.9179,2.9182,2.9181,2.9175,2.9178,2.918,2.9145,2.9145,2.9145,0,0,2.9439,2.9422,2.9419,2.9403,2.9378,2.9359,2.9358,2.9328,2.9316,2.9303,2.9278,2.9266,2.9239,2.9221,2.9209,2.9223,2.9204,2.9218,2.9236,2.9232,2.9234,2.9236,2.9241,2.9243,2.9219,2.9219,2.9219,0,2.946,2.9444,2.9418,2.941,2.9398,2.937,2.9365,2.935,2.9321,2.9313,2.9304,2.927,2.925,2.9236,2.924,2.9231,2.9228,2.9222,2.9236,2.9238,2.9239,2.9243,2.9245,2.9221,2.9221,2.922,2.922,0,2.9471,2.946,2.9459,2.9434,2.9422,2.9415,2.9388,2.9379,2.9362,2.9343,2.933,2.9305,2.9283,2.9278,2.9261,2.9262,2.9257,2.9242,2.9226,2.9245,2.9248,2.9249,2.9224,2.9223,2.9222,2.9222,0,0,2.9513,2.9473,2.9474,2.9461,2.9432,2.9423,2.9414,2.9394,2.9386,2.9367,2.9358,2.9336,2.9322,2.9308,2.9289,2.9285,2.9297,2.927,2.9269,2.9276,2.9295,2.9307,2.9309,2.9285,2.9285,2.9285,2.9297,0,2.9529,2.9514,2.9491,2.9482,2.9472,2.9444,2.9436,2.9417,2.9399,2.9386,2.9365,2.935,2.9333,2.9325,2.932,2.9297,2.9301,2.9296,2.9275,2.9275,2.9283,2.9311,2.9322,2.9335,2.9299,2.9299,2.9299,0,2.9546,2.953,2.9521,2.9493,2.9488,2.9481,2.9461,2.9449,2.9426,2.9413,2.9397,2.9376,2.9364,2.935,2.9332,2.9329,2.9319,2.9307,2.9306,2.9303,2.9288,2.9308,2.9339,2.9341,2.9301,2.9301,2.93,0,2.9578,2.9553,2.9545,2.9535,2.9502,2.9498,2.9484,2.946,2.9449,2.9431,2.9423,2.9403,2.9391,2.9375,2.9349,2.9341,2.9333,2.9317,2.9321,2.9322,2.9321,2.9321,2.9351,2.9315,2.9315,2.9315,2.9315,0,2.9599,2.9594,2.9559,2.9554,2.9547,2.952,2.9514,2.9497,2.9476,2.9466,2.944,2.9431,2.9397,2.9383,2.9362,2.935,2.9345,2.9333,2.9328,2.9336,2.9337,2.9328,2.9327,2.9315,2.9315,2.9315,2.9315,0,2.9633,2.9609,2.9598,2.9568,2.956,2.9557,2.953,2.9523,2.9504,2.9491,2.9486,2.9455,2.9438,2.941,2.9383,2.9369,2.9361,2.9352,2.9369,2.9366,2.9372,2.9372,2.9397,2.9398,2.9362,2.9362,2.9363,0,2.9648,2.9644,2.9614,2.9606,2.9593,2.958,2.9569,2.9542,2.9531,2.9504,2.95,2.9481,2.9464,2.9437,2.9411,2.9391,2.9381,2.9391,2.9377,2.9385,2.9381,2.9381,2.938,2.9394,2.9394,2.9395,2.9395,0,2.9676,2.9665,2.9651,2.9633,2.9622,2.9606,2.9588,2.9583,2.9551,2.954,2.9523,2.951,2.9484,2.9464,2.944,2.9423,2.9404,2.94,2.94,2.9408,2.9418,2.9412,2.9378,2.9399,2.9399,2.9399,2.9398,2.9398,2.9701,2.9696,2.9675,2.966,2.9644,2.9629,2.9621,2.9601,2.9586,2.9564,2.9548,2.9532,2.9507,2.9473,2.9458,2.9443,2.9434,2.9434,2.9434,2.9435,2.9438,2.9421,2.9438,2.9438,2.9438,2.9438,2.9438,0,2.9728,2.9713,2.97,2.9677,2.9666,2.965,2.9629,2.962,2.9607,2.9586,2.9571,2.955,2.9532,2.9504,2.9483,2.9477,2.9467,2.9472,2.9472,2.9468,2.9447,2.9449,2.948,2.948,2.948,2.948,2.948,2.948,2.9741,2.9733,2.9719,2.9701,2.9685,2.967,2.966,2.9645,2.9629,2.9608,2.9593,2.9576,2.9552,2.9529,2.9511,2.9503,2.9496,2.9504,2.9493,2.9474,2.947,2.9466,2.9468,2.9503,2.9503,2.9516,2.9516,2.9516]}]]